BEIDOU-3 M24

Last updated on Tue Oct 07 2025 00:02:34 GMT+0000 (Coordinated Universal Time)

1 44542U 19061A 25279.26270484 .00000023 00000+0 00000+0 0 9997 2 44542 54.4036 191.2933 0009011 10.1370 349.9168 1.86229365 41067
UTC large
Height (km)
Speed (km/s)
/
Latitude / Longitude
Inclination (degrees)
Orbital Period (minutes)
Azimuth
Elevation
Range (km)
Doppler Factor

Next 0 passes for location: London (51.5072 / 0.1276)

Sorry there are no passes over London.